Showing default

SPOT 3, 22823

Orbit data source: Space-Track

SPOT 3, 22823 is a payload satellite owned by CNES (FR) in SSO that was launched on Sun, 26 Sep 1993 UTC via an ARIANE 40 launch vehicle from the French Guiana (FRGUI). Payload-class satellites include a variety of spacecraft equipped with specific instruments for various scientific and technological missions. These include communications satellites like Starlink; space stations such as the ISS; scientific satellites like the Hubble; Earth observation satellites from companies like Planet Labs, Umbra, and HawkEye 360; GPS; miniature CubeSats for education and research; and military/defense satellites.

Loading next visibility...
Identifier
22823, 1993-061A
Orbit
SSO
Country
Flag of FRFR
Related business
Manufacturer
MMS/Toulouse
Mission
Non-operational Civil Imaging
Bus & Motor
SPOT, SPOT AOCS
Mass
1,900 kg wet, 1,750 kg dry
Launch date (UTC)
1993-09-26 (32 years ago)
Launch vehicle
ARIANE 40
Launch site
French Guiana (FRGUI)
Object type
Payload
Rocket body
Debris
Shape & HBR
Box + 1 Pan, 4.1 m
Radar Cross Section
12.991 m², Large (>1 m²)

Expand to show TLE details & history
Last TLE update: 10 hours ago

TLE from 10 hours ago
0 SPOT 3
1 22823U 93061A   25353.14805297  .00000061  00000-0  49828-4 0  9992
2 22823  98.8843  51.7742 0017314  41.8240 318.4255 14.20029020669021
Epoch: 2025-12-19T03:33Z
TLE epoch observation values (Epoch: 2025-12-19T03:33:11.776Z)
Latitude
-0.00009°
Longitude
-89.51822°
Altitude
818.841 km
Speed
7.449 km/s
True Right ascension
03h 27m 05s
True Declination
0° 00' 00"
Sunlit
Object was in full shadow at epoch
Visualization orbit readout
Latitude
Unknown
Longitude
Unknown
Altitude
Unknown
Speed
Unknown
Apparent Right ascension
Unknown
Apparent Declination
Unknown
Sunlit
N/A
Visualization observer readout
Local Sidereal Time
12:51:31
Azimuth
Unknown
Elevation
Unknown
Doppler factor
Unknown
Orbital elements
Apogee altitude
834.889 km
Perigee altitude
809.955 km
Semi-major axis
7,200.559 km
Eccentricity
0.00173
Inclination
98.8843°
RAAN
51.7742°
Arg. of periapsis
41.824°
True anomaly
318.29363°
Mean anomaly
318.4255°
Eccentric anomaly
318.35958°
Mean motion
3.55217 °/min
Orbital period
101.35 mins
BSTAR
0.000049828
Loading maneuver chart data...
Computing Atmospheric mass density...
Loading historical data...
Loading historical data...
Loading historical data...
Loading historical data...
Loading historical data...
Loading historical data...
Loading historical data...

Documentation

Showing up to 5 results
|